Theta_e
306 305 305 305 306 306 307 308 308 308 308 308 308 307 307 308 308 306 305 305 305 305 304 303 302 301 301 301 301 300 298 297 296 295 296 296 294 292 291 290 290 290 290 290 290 290 291 291 291 292 292 292 292 291 290 290 290 289 288 288 288 287
306 305 304 304 304 305 307 307 308 307 307 307 307 308 308 307 307 305 303 304 304 304 304 303 303 301 300 300 299 299 298 296 295 293 293 294 292 291 290 289 289 289 289 289 289 289 289 289 290 291 291 291 290 289 289 288 288 286 285 285 286 286
305 304 304 304 304 305 306 306 307 307 307 307 307 306 306 306 306 306 304 303 303 303 302 302 301 300 300 298 298 297 295 295 294 293 293 292 291 290 289 289 288 288 289 288 288 288 288 289 289 290 289 289 288 287 287 286 286 285 284 284 283 284
304 303 303 303 303 303 304 306 306 306 306 306 306 306 306 306 306 306 305 303 302 301 301 301 300 300 299 297 297 296 294 294 293 292 291 291 291 289 289 288 288 287 288 288 288 287 287 287 288 288 288 287 286 285 287 286 285 284 283 283 282 283
304 302 301 301 301 302 303 304 305 305 305 306 306 305 305 306 306 306 305 304 302 301 301 300 298 298 297 297 296 295 294 293 292 291 290 290 289 289 289 288 288 287 287 287 287 287 286 287 287 287 287 286 285 285 285 285 284 284 283 282 282 282
302 301 300 300 300 301 301 302 304 305 305 305 305 304 305 305 305 305 304 303 301 300 299 298 297 297 296 295 295 293 292 292 292 290 289 289 289 288 288 288 288 287 286 286 286 286 286 286 286 286 286 286 285 284 284 284 284 284 283 283 282 282
300 300 301 301 301 301 301 301 302 303 304 304 304 304 304 304 305 304 303 301 299 299 298 297 296 295 294 294 293 293 292 291 289 288 288 288 287 287 287 287 287 287 286 286 285 285 285 285 285 285 285 285 285 284 284 284 284 284 284 283 283 282
303 302 301 301 301 301 301 301 302 302 303 304 304 303 303 303 304 303 301 299 298 298 297 296 295 295 295 293 292 291 293 290 288 287 287 287 287 286 286 286 286 286 286 286 285 285 285 285 285 285 284 284 284 284 284 284 284 284 283 283 282 282
302 302 301 301 301 301 301 301 301 301 302 302 303 303 303 302 302 302 300 298 298 297 296 295 294 294 293 293 292 291 290 289 288 287 286 286 286 285 285 285 285 285 285 285 285 284 284 284 284 285 284 284 284 283 283 283 283 283 282 282 281 281
304 303 302 301 301 301 301 301 301 301 301 300 301 301 301 302 301 300 299 298 297 296 295 295 294 293 293 292 291 290 288 288 287 286 286 285 285 285 284 284 284 284 285 284 284 284 285 284 284 284 284 284 284 283 282 283 282 281 281 281 281 281
305 304 303 302 300 299 299 299 299 300 299 300 300 300 300 300 300 299 298 297 296 296 296 295 294 293 292 291 291 289 288 287 286 286 285 285 285 285 285 284 284 284 283 284 284 283 284 284 284 284 283 283 283 283 282 282 282 281 280 280 279 279
306 306 306 303 301 300 298 298 298 298 298 298 299 299 299 299 298 298 297 296 295 295 296 294 293 292 291 292 289 288 287 286 286 285 285 285 285 285 284 284 284 283 283 283 283 283 283 284 284 284 286 285 283 282 283 283 282 281 280 279 278 278
305 306 305 304 302 301 299 299 299 298 298 298 298 298 298 299 297 296 296 295 295 295 295 293 292 292 290 290 289 288 287 286 285 285 285 285 284 284 284 284 283 282 282 282 282 282 282 283 283 285 288 288 286 283 283 282 282 281 280 279 279 278
306 305 304 304 303 302 301 299 299 297 297 297 297 297 297 297 296 296 295 295 295 294 294 293 291 291 290 288 287 287 286 286 285 285 285 284 284 284 284 283 283 283 282 282 282 281 281 282 284 287 288 288 288 285 283 283 282 281 280 279 279 279
308 307 307 305 304 303 302 301 298 297 297 297 297 297 296 296 295 295 295 295 294 294 293 292 291 290 289 288 287 286 286 285 284 284 284 284 284 284 283 283 282 282 282 282 281 281 281 281 285 287 288 288 287 287 284 283 282 281 280 279 279 279
309 309 309 307 306 304 303 300 299 298 298 297 297 295 295 295 294 294 294 293 293 293 292 291 289 288 288 287 287 286 285 284 284 284 284 284 284 283 283 283 283 283 282 282 282 282 281 282 284 286 287 287 287 287 285 283 282 281 280 280 279 280
308 308 305 304 304 302 300 298 298 298 297 296 295 295 294 294 294 293 293 292 292 291 291 290 289 288 287 287 286 285 285 284 284 284 284 284 283 282 282 282 282 282 282 282 282 282 281 280 284 286 286 287 287 287 285 283 282 282 282 281 280 280
307 306 305 304 301 299 298 297 297 296 295 295 294 293 293 292 292 292 292 291 291 290 290 288 288 287 286 286 285 285 284 284 284 284 284 284 284 284 283 283 283 282 282 282 281 281 280 280 284 285 286 287 287 286 283 283 282 282 281 280 279 280
306 305 303 300 299 297 297 297 295 295 293 292 293 291 291 291 291 291 291 290 290 289 289 289 288 287 286 285 285 284 284 284 284 284 284 283 283 283 282 282 282 282 282 281 281 280 280 280 283 285 286 286 286 285 282 282 281 280 279 279 279 279
296 296 298 296 295 296 295 294 294 293 291 291 290 290 290 290 290 291 290 290 290 289 289 288 287 286 285 285 284 284 284 284 284 284 284 283 282 282 282 282 282 282 282 281 280 280 280 279 282 285 286 286 286 284 281 280 280 279 279 279 280 280
295 293 294 294 292 292 293 292 291 291 289 289 289 289 289 289 290 290 289 289 289 289 288 288 287 286 285 285 284 284 284 284 284 284 284 284 283 282 283 282 281 280 281 280 280 282 280 279 281 285 286 286 286 284 282 280 280 280 280 280 280 281
292 291 291 291 292 290 290 290 290 288 289 288 289 288 289 289 290 290 290 289 289 288 287 287 286 286 285 285 284 284 284 284 284 283 283 283 283 282 281 281 281 279 279 280 280 280 279 278 280 284 286 286 287 286 284 283 281 281 281 282 283 283
293 292 291 291 290 289 289 289 289 288 288 288 288 288 288 289 290 289 289 288 288 287 286 286 286 285 285 285 284 284 284 284 283 283 283 282 282 281 280 280 280 280 279 279 280 279 280 279 279 283 286 286 287 287 285 284 283 284 284 284 285 285
289 289 288 288 289 288 288 288 287 287 287 287 287 288 289 289 289 288 287 286 286 286 286 285 285 285 285 285 285 284 283 284 284 283 282 282 281 280 279 279 279 279 278 278 279 280 279 280 280 281 285 286 286 287 286 284 284 285 285 285 285 285
288 287 287 287 287 288 287 287 286 286 286 286 287 288 288 288 287 287 286 286 285 285 285 284 284 284 284 284 284 283 282 282 282 282 282 281 280 280 279 279 279 279 278 278 278 279 279 280 280 281 282 285 286 287 287 285 285 286 285 284 283 284
287 286 286 286 287 287 287 286 285 286 286 285 287 287 286 286 286 286 285 285 284 284 284 284 284 284 284 284 283 283 281 281 282 282 281 281 280 279 279 279 279 279 278 277 277 278 279 279 279 281 281 283 285 286 286 286 286 286 285 285 284 284
286 285 285 286 286 286 286 286 285 285 284 285 285 285 285 285 285 284 283 283 283 283 283 284 284 284 284 283 283 282 282 281 282 281 281 281 280 280 279 279 279 279 278 278 278 278 278 278 279 279 280 281 282 284 285 285 285 286 286 285 285 285
285 285 284 284 285 285 285 285 286 284 284 285 285 285 285 284 284 283 283 283 283 283 283 283 283 283 283 283 284 283 282 281 281 281 281 281 281 280 280 279 279 279 279 279 279 278 278 278 278 278 279 280 281 281 282 284 284 284 284 284 283 283
284 284 284 282 284 284 284 285 285 285 285 284 285 284 284 283 283 282 283 282 282 283 283 283 282 282 283 283 284 283 282 282 282 282 281 281 281 281 280 280 279 279 279 279 280 280 279 279 279 279 279 279 280 280 280 280 280 281 281 280 280 280
284 283 282 282 282 282 283 284 284 284 284 284 284 284 284 283 282 282 282 282 282 282 283 282 279 281 283 283 283 282 282 283 283 282 281 281 281 281 281 280 280 280 280 280 281 280 279 278 279 279 278 277 278 278 278 277 277 276 277 276 277 276
283 283 281 280 279 280 280 281 282 283 283 283 283 284 283 282 282 282 282 282 282 282 282 282 282 283 283 283 282 281 282 282 283 282 281 281 283 283 282 281 281 281 281 282 280 279 278 278 277 277 280 278 279 278 276 276 275 276 276 277 278 276
282 281 279 277 277 278 277 278 279 281 282 283 283 283 282 281 281 281 281 282 282 281 281 282 282 282 282 281 279 278 278 279 282 282 281 279 281 282 283 283 281 281 281 280 280 279 279 278 278 280 280 280 280 280 279 279 279 279 278 279 280 279
281 279 277 276 276 276 276 276 277 278 280 282 282 282 281 281 281 281 281 281 281 281 281 281 281 281 280 280 279 278 277 277 279 281 281 281 280 281 281 281 281 281 281 279 276 278 281 280 281 280 280 280 280 279 279 279 280 280 280 281 280 278
278 277 276 276 275 275 275 274 275 276 278 280 281 282 281 281 281 280 281 281 280 280 280 280 280 279 279 279 279 279 278 277 276 277 280 281 281 281 281 281 281 281 281 280 279 278 278 280 280 280 280 280 280 280 281 281 281 281 282 282 282 279
278 278 276 275 275 274 274 273 272 272 274 277 280 281 281 281 281 280 280 279 279 279 278 278 279 279 279 278 278 278 278 277 276 275 275 277 281 281 281 281 281 281 280 280 280 280 280 279 280 280 280 280 280 280 280 281 281 280 280 280 278 277
277 276 275 275 274 274 273 272 270 270 270 272 277 280 280 280 280 280 279 278 278 278 278 278 278 278 278 278 279 279 278 277 277 275 274 273 274 274 276 279 279 279 279 279 279 279 279 279 279 279 279 278 278 278 278 278 278 279 279 278 276 275
276 275 274 273 273 272 271 269 267 266 268 272 277 278 279 279 278 278 274 273 275 278 278 278 278 278 278 278 278 278 277 277 276 275 274 274 273 273 272 271 273 276 277 276 277 277 278 278 277 277 277 277 276 277 277 277 274 274 275 275 273 273
274 273 272 271 272 271 269 267 266 266 267 273 276 277 277 276 276 276 275 276 276 277 277 277 277 277 277 277 277 277 276 275 275 274 275 274 273 272 270 270 270 270 274 276 276 276 276 276 275 275 274 274 274 274 275 271 271 271 271 271 270 269
Wind_Speed
6 7 6 7 7 8 9 9 10 9 10 10 11 12 12 12 10 11 10 11 9 11 10 11 9 8 8 8 7 7 7 8 7 8 8 6 5 5 6 6 7 7 7 7 6 6 7 6 6 6 6 6 6 6 5 6 6 6 6 5 6 5
5 6 6 7 8 8 7 8 8 10 9 10 10 10 10 11 12 11 11 11 11 10 12 11 10 9 9 8 8 8 10 9 8 8 7 8 5 7 6 6 7 7 8 7 7 7 6 7 6 6 7 6 6 6 6 6 7 7 7 6 5 4
5 5 5 6 6 6 7 8 10 10 10 11 12 12 12 13 12 12 11 10 12 12 13 10 10 10 9 8 9 9 8 9 8 7 7 6 5 7 7 8 8 8 8 8 7 7 7 8 8 7 7 6 7 6 7 7 7 8 7 7 7 5
6 5 5 5 6 7 9 9 9 10 11 11 11 11 11 12 12 12 11 11 10 13 12 12 9 9 8 8 9 9 8 8 8 7 6 8 7 7 8 8 7 7 7 8 8 7 6 7 8 8 7 8 8 7 6 7 8 8 8 8 8 6
5 5 6 6 7 7 8 9 9 10 11 11 11 12 12 11 11 10 10 10 10 12 11 10 9 8 9 9 8 8 8 6 7 7 8 7 7 7 8 8 9 8 8 7 7 7 7 8 8 8 8 8 9 9 8 7 8 9 9 9 8 8
5 4 5 6 7 8 9 9 9 9 10 11 11 12 12 11 10 10 10 9 9 10 10 9 8 10 9 10 8 8 7 6 6 7 7 7 6 8 7 8 9 8 8 7 7 7 7 8 8 8 8 10 10 10 10 8 8 8 9 9 9 8
5 5 6 7 7 7 8 9 10 10 11 11 11 10 11 10 10 10 10 9 10 10 9 9 8 10 10 9 8 10 9 7 7 7 8 8 7 8 7 8 8 8 8 8 8 8 8 8 8 9 8 8 8 10 10 9 8 8 8 8 9 8
4 5 6 6 7 8 8 8 9 10 10 12 10 10 10 11 9 10 9 9 10 10 11 9 9 11 11 10 9 9 10 8 8 8 8 8 8 8 8 8 9 9 10 10 10 9 9 9 8 9 9 10 10 10 9 9 9 9 8 8 8 8
8 7 7 8 7 8 8 8 9 10 11 10 9 9 9 9 9 9 9 9 10 10 11 10 10 8 10 11 10 9 9 9 8 9 9 8 9 9 9 7 10 9 10 10 10 10 9 9 9 9 9 9 9 10 10 9 8 7 7 7 8 8
7 7 9 9 9 8 7 8 9 10 10 9 8 8 8 7 9 9 9 10 10 10 10 10 10 10 10 10 10 9 10 10 9 8 7 8 9 9 8 9 12 10 9 9 8 8 9 9 10 9 9 9 9 9 9 9 9 8 8 8 7 7
9 9 8 8 7 7 8 7 8 9 8 7 8 8 9 8 9 10 10 10 10 10 9 9 9 8 10 10 10 10 10 11 10 9 8 8 8 7 6 5 8 8 9 8 7 8 7 8 8 8 10 10 9 10 11 10 10 10 10 9 9 7
13 13 10 9 10 9 9 9 10 10 8 9 9 9 9 9 10 10 10 10 10 9 9 9 9 9 10 11 10 10 10 10 9 9 7 9 8 7 6 5 7 7 8 7 7 6 6 7 6 9 15 13 12 10 8 9 9 10 10 10 8 7
13 13 13 13 12 12 11 10 10 8 8 8 9 9 9 9 9 10 10 10 8 8 8 8 9 10 10 10 10 10 10 9 8 9 4 6 6 8 7 7 9 9 8 8 9 9 7 6 7 14 14 12 13 11 10 10 9 8 8 9 9 8
13 14 15 14 11 9 8 9 7 8 10 9 9 9 8 9 9 10 10 9 8 9 9 8 9 10 10 10 10 10 7 8 8 7 6 6 6 6 6 8 9 9 7 6 5 5 6 6 7 11 11 12 13 10 10 7 8 7 8 8 10 7
17 16 15 9 7 11 11 9 9 11 11 9 8 8 9 10 9 9 9 9 9 9 9 8 9 10 10 10 10 8 7 7 7 7 7 8 7 7 8 6 8 8 7 7 7 7 7 6 8 10 9 10 13 13 11 8 8 9 8 9 10 11
16 13 10 11 11 11 8 9 11 9 8 8 8 10 9 10 10 9 9 9 9 9 9 9 7 8 9 9 8 8 8 7 8 7 6 6 6 7 6 6 7 6 6 7 7 5 5 4 7 11 11 12 13 14 11 7 8 8 8 10 10 7
16 8 4 7 8 4 6 6 7 7 7 8 9 9 9 9 9 9 9 9 9 9 9 9 9 7 8 8 9 9 8 9 7 8 6 7 8 9 9 9 9 7 6 5 6 6 6 6 11 12 13 13 12 13 7 6 6 5 5 6 9 10
14 11 11 4 4 5 6 6 6 7 7 7 8 8 8 9 9 8 8 9 9 9 8 9 9 7 7 8 9 9 9 9 8 9 6 5 4 4 5 4 5 7 7 7 6 5 6 5 13 13 12 12 11 10 3 3 4 5 5 6 7 8
7 5 1 3 4 5 5 5 6 6 6 7 6 7 7 8 8 8 9 8 9 9 8 9 10 7 8 8 9 9 9 9 7 6 5 6 4 5 6 6 5 5 6 6 6 6 5 5 10 13 12 12 13 8 3 4 4 4 5 5 5 6
3 4 2 2 3 2 4 5 6 6 6 6 6 7 7 7 7 7 8 8 7 8 8 9 7 7 7 8 9 9 7 5 4 5 5 7 7 7 6 4 4 4 4 5 6 6 5 5 7 12 13 14 14 9 6 4 4 4 4 4 3 3
2 3 3 3 4 4 5 6 7 6 6 6 6 6 7 7 7 7 7 7 7 7 7 7 7 8 8 8 8 8 9 8 6 5 5 5 5 5 4 5 5 5 4 4 5 5 6 5 7 12 13 14 14 10 6 6 5 5 4 4 4 3
3 2 4 4 4 6 6 6 6 4 6 6 6 6 6 7 7 7 7 7 7 7 5 6 8 8 9 9 8 7 7 6 6 6 6 6 4 5 4 5 4 6 4 4 4 5 5 6 6 9 15 15 16 14 8 6 6 6 6 5 5 5
2 3 4 4 6 6 6 6 7 6 5 6 6 5 6 6 6 7 7 7 7 5 6 6 7 8 7 7 8 8 7 6 7 7 6 6 5 6 6 6 4 4 4 3 2 3 2 3 5 8 16 18 18 17 13 6 6 5 5 5 5 4
3 4 4 3 4 5 6 5 7 6 7 6 5 6 6 7 7 7 7 5 6 7 7 7 7 8 8 8 9 8 7 6 7 7 8 5 6 8 7 6 5 5 4 3 2 3 2 2 4 3 8 12 14 15 13 6 5 5 5 4 3 3
3 3 4 3 4 4 3 6 7 5 5 5 6 7 7 7 7 7 6 7 7 7 8 8 9 8 7 7 8 9 8 7 8 8 7 7 7 7 6 6 5 5 5 4 3 2 2 2 3 6 4 9 12 14 14 10 5 7 3 2 2 1
4 4 4 3 3 3 3 7 7 6 6 6 6 6 6 5 6 7 8 8 8 8 7 7 7 7 7 8 8 8 9 8 8 7 6 7 7 6 6 5 5 4 5 5 4 3 3 2 2 4 5 4 9 11 13 12 9 6 2 2 3 2
5 5 3 4 4 3 3 4 8 8 8 5 5 6 7 8 9 9 9 9 8 8 7 7 7 7 7 7 8 8 7 9 8 7 6 7 6 6 6 5 5 5 5 5 5 4 4 3 2 2 4 6 4 8 11 11 10 10 9 5 4 4
3 4 5 4 3 4 2 2 6 10 6 7 6 7 9 9 10 9 9 9 8 8 9 9 8 8 7 7 6 7 7 8 7 7 7 6 6 6 6 5 5 5 5 4 4 5 4 4 3 3 3 5 5 4 6 9 9 8 8 5 3 4
4 4 4 4 2 2 2 3 2 5 6 7 7 9 9 10 11 9 9 9 8 9 9 9 7 7 7 6 6 6 6 5 5 6 6 6 6 5 5 5 6 5 5 5 4 5 5 5 5 4 4 4 4 3 3 3 3 5 4 2 1 1
6 7 5 4 3 2 2 3 4 5 7 7 8 9 10 11 11 9 9 10 9 7 8 8 10 9 7 6 6 6 6 4 4 5 5 5 6 6 6 6 6 5 5 5 5 4 4 4 3 4 4 4 4 3 3 3 2 2 2 2 1 2
9 7 7 5 3 3 4 5 5 6 8 8 8 9 11 10 10 10 10 9 8 8 7 7 7 7 7 7 7 6 4 3 4 5 5 5 2 2 3 4 4 3 3 3 4 4 3 3 4 3 5 5 7 5 3 3 3 3 2 3 5 3
11 12 10 5 3 4 5 6 5 5 7 7 7 8 11 11 11 10 9 8 8 8 8 7 7 7 7 7 7 8 9 13 14 7 4 3 8 12 12 8 3 2 3 4 3 1 2 3 4 10 11 10 9 9 8 7 7 7 4 5 6 4
7 8 10 8 6 7 6 6 5 5 5 5 6 8 10 11 10 8 8 8 8 8 8 8 7 7 7 7 7 6 8 7 9 15 14 12 10 12 13 12 12 10 7 5 4 8 16 14 13 12 10 10 9 9 8 7 7 7 8 8 4 4
10 10 10 6 7 8 8 7 5 4 3 4 5 7 9 10 10 8 6 6 8 9 8 5 8 8 8 7 7 7 7 7 9 9 12 13 12 13 13 13 13 13 13 12 10 7 6 10 11 11 10 10 10 9 9 8 8 7 7 7 6 4
2 4 4 5 6 7 8 8 6 4 2 3 4 6 8 8 8 10 10 9 9 7 9 7 7 8 8 8 8 7 8 7 8 9 8 10 15 15 14 13 13 12 11 11 10 10 8 8 9 10 10 9 8 7 7 7 6 5 4 4 3 4
5 4 4 6 6 6 7 8 6 3 2 2 4 6 7 7 8 9 9 8 10 10 8 8 8 8 8 7 7 7 8 7 8 8 8 8 6 8 12 14 13 12 13 12 11 11 11 11 10 9 8 7 6 5 5 5 3 4 5 5 2 1
6 5 4 5 5 6 7 6 3 0 1 3 4 7 8 8 8 7 9 12 9 8 8 8 7 8 8 7 7 7 7 8 7 8 8 8 8 8 7 5 6 8 9 8 8 10 11 11 11 10 9 8 7 6 6 6 3 3 3 3 2 2
6 6 6 5 5 7 9 6 1 1 3 4 5 8 9 9 10 9 9 7 8 7 6 7 7 7 8 8 7 6 7 8 8 6 6 6 6 6 7 6 4 4 7 12 12 12 11 11 10 9 8 6 4 3 5 2 3 3 2 2 1 2
Wind_Direction
187 182 179 181 182 185 187 190 190 192 196 197 195 196 198 199 198 194 196 201 207 216 208 198 191 186 188 195 186 179 187 186 182 189 193 184 151 146 153 158 168 172 172 178 177 172 169 159 152 155 151 154 137 133 126 131 134 128 119 112 115 121
176 173 173 179 182 183 187 188 190 195 195 195 197 199 199 199 200 192 197 201 206 211 216 199 192 188 186 185 179 193 200 193 183 181 182 185 142 165 162 170 176 175 177 179 173 169 166 154 150 160 155 151 141 144 138 141 137 127 127 125 122 130
153 157 167 174 175 181 186 191 194 195 194 196 194 195 197 202 201 197 197 195 205 205 202 191 190 190 185 182 185 195 194 191 185 180 185 160 165 165 171 179 178 177 179 174 174 173 170 161 156 159 157 153 143 142 133 138 137 135 132 131 128 132
138 151 162 165 173 187 195 196 195 197 197 197 193 193 199 201 203 203 199 195 199 205 202 197 191 190 184 182 184 193 191 189 185 178 161 178 179 169 177 177 172 172 176 178 174 174 172 160 158 162 160 153 141 129 137 145 145 140 135 137 139 139
141 168 180 181 189 196 200 202 204 201 199 198 195 192 198 200 203 204 202 200 201 203 200 191 187 179 187 195 194 195 186 163 170 170 174 176 169 171 178 175 172 174 175 176 174 174 173 163 162 166 161 151 148 144 147 154 151 147 145 146 146 143
146 155 190 196 198 203 205 208 211 207 203 201 195 195 194 194 197 198 202 202 198 196 195 193 180 196 196 200 196 184 179 171 168 168 176 171 165 175 179 179 173 168 171 172 176 176 175 168 166 166 160 154 152 150 152 152 151 149 149 147 144 144
189 197 200 201 198 203 204 207 212 209 208 203 192 188 191 194 193 194 195 191 192 191 192 191 173 186 193 195 192 198 189 180 170 174 178 171 169 172 166 173 172 170 171 178 180 181 179 176 171 166 157 152 151 152 152 153 149 147 148 146 145 142
209 211 211 209 203 202 205 207 212 214 215 210 190 179 183 191 189 194 187 190 192 195 195 190 183 192 197 191 192 188 193 184 180 175 182 171 164 171 175 166 179 181 184 186 187 185 183 176 173 166 159 158 157 154 152 148 148 149 145 137 133 130
229 220 218 217 208 201 203 203 207 213 216 205 188 180 180 181 185 189 189 189 194 194 195 194 190 178 187 190 194 188 186 182 178 175 173 170 171 176 180 165 179 186 189 189 185 185 180 173 171 168 164 154 151 151 153 150 142 134 129 127 126 121
237 222 219 212 206 198 203 206 207 209 213 198 184 181 180 179 182 189 192 188 192 193 192 194 189 184 181 184 186 184 184 180 177 175 172 171 180 184 177 175 187 187 187 187 186 185 177 174 173 167 158 156 154 151 147 148 147 140 127 119 117 115
228 225 211 208 198 200 205 205 210 210 211 193 182 180 187 177 181 189 192 193 196 197 188 186 185 180 179 182 186 184 180 184 180 176 170 173 182 187 172 164 175 180 187 184 182 184 183 179 174 166 160 153 152 155 156 155 150 145 139 131 124 119
238 233 216 206 200 203 202 201 206 209 202 194 185 180 183 179 186 188 191 198 200 193 189 185 177 178 178 185 178 176 170 174 174 165 163 176 180 185 163 143 168 185 187 187 182 185 182 185 182 170 169 169 166 163 154 151 153 150 145 137 124 120
232 232 223 216 207 204 206 200 201 196 200 202 186 179 179 181 185 191 193 201 195 190 187 183 175 176 181 181 172 174 172 161 148 168 160 170 173 172 167 154 173 185 190 192 191 189 192 187 186 179 172 162 159 158 154 153 151 145 142 142 140 139
240 231 227 219 201 192 194 197 182 176 204 197 187 175 170 184 189 189 192 192 188 188 189 186 174 180 181 173 167 167 168 164 165 171 161 169 167 169 164 175 185 184 187 188 193 192 195 199 179 174 167 159 157 154 155 146 139 144 150 155 147 124
248 243 240 216 197 205 206 182 177 200 199 188 179 158 173 186 188 189 187 185 185 188 185 182 176 178 172 171 166 168 164 162 164 165 164 172 169 160 174 178 170 181 183 183 183 181 183 194 182 174 170 154 151 152 154 155 153 151 158 164 162 159
263 258 226 211 207 210 200 178 192 193 178 176 165 166 176 180 187 187 184 180 183 184 180 178 168 169 163 156 160 155 155 158 167 166 164 160 155 165 169 171 178 176 181 184 188 182 173 172 168 175 169 169 166 159 155 159 160 163 163 166 166 142
263 257 204 212 206 171 144 169 180 167 164 168 167 170 171 182 181 184 180 177 175 173 174 168 163 160 154 156 154 156 156 160 157 159 156 159 169 173 176 177 179 183 178 179 177 171 172 175 171 181 184 182 174 166 146 146 154 150 139 130 140 160
257 243 238 194 152 162 167 174 163 159 170 162 163 164 171 175 177 175 174 173 173 173 167 161 161 158 155 152 156 160 160 161 160 161 151 138 134 128 146 156 167 174 177 176 171 168 176 169 176 183 183 180 176 162 128 116 129 133 141 147 154 157
267 282 334 108 140 144 167 153 150 158 149 157 160 154 162 165 173 177 170 166 167 166 158 159 157 155 154 155 158 162 160 158 155 144 131 145 137 142 162 168 171 169 167 166 173 176 177 165 176 178 176 173 168 147 113 113 109 129 143 151 155 159
62 57 77 107 126 133 128 136 147 151 143 147 149 150 163 168 174 174 167 167 160 160 157 156 156 151 150 152 157 159 150 136 112 133 141 154 156 159 162 143 101 105 156 164 175 180 171 162 170 176 175 171 169 143 142 133 125 136 153 157 153 151
88 103 114 139 149 140 134 142 146 136 140 142 148 156 161 172 173 166 158 155 151 149 139 144 147 145 145 151 154 152 151 152 143 134 139 140 138 132 108 125 129 144 122 159 163 151 157 157 169 177 179 175 166 138 141 142 149 158 173 174 167 164
104 122 153 175 160 130 144 143 139 133 133 140 145 156 165 166 163 147 143 139 137 129 130 136 138 142 146 147 143 143 141 133 125 136 139 140 126 123 125 138 132 152 152 148 156 171 165 161 175 181 177 175 170 154 149 157 161 177 175 175 173 173
187 186 167 148 133 141 146 145 133 138 137 138 145 158 154 149 138 137 140 135 125 121 125 129 138 136 133 136 135 135 131 133 132 134 126 135 119 123 128 135 117 92 98 101 100 151 152 165 179 189 183 179 177 170 162 166 170 164 161 164 172 186
102 91 85 95 131 143 145 138 138 134 135 140 144 146 138 130 129 125 118 115 117 122 122 122 120 124 126 127 130 132 126 115 117 123 130 121 124 133 130 129 118 122 115 115 109 104 108 121 154 174 193 185 183 178 169 163 165 158 152 159 165 177
125 118 117 117 130 138 134 134 132 129 134 132 133 127 122 119 116 112 110 112 113 115 117 120 125 125 126 131 131 128 120 117 123 127 122 119 110 112 112 124 129 130 127 126 134 140 130 120 138 167 179 191 189 190 185 177 154 164 150 160 192 215
122 118 112 124 122 121 128 140 132 135 127 121 119 108 106 105 105 106 109 110 110 111 110 114 115 114 118 121 118 117 120 124 123 123 121 124 128 132 131 132 126 125 135 144 148 159 162 155 144 176 176 178 194 196 201 204 199 183 169 185 220 226
139 128 121 116 112 112 113 140 139 137 130 120 114 119 116 114 113 113 111 113 114 110 111 112 111 114 116 119 123 120 116 122 128 126 127 129 131 135 143 150 155 160 161 161 163 163 159 158 153 150 184 187 191 208 212 215 217 223 227 234 235 218
106 123 128 121 115 116 115 135 147 140 134 131 130 124 123 122 120 109 117 119 116 118 118 113 110 112 117 117 118 119 128 135 136 132 138 143 145 149 150 153 156 160 156 160 164 157 157 153 151 161 159 179 187 206 226 225 230 238 244 263 286 317
136 133 126 117 101 90 99 132 128 126 125 127 127 127 126 124 121 113 116 122 116 120 122 121 123 121 118 117 117 116 122 130 130 131 141 148 147 149 148 150 156 156 158 165 163 153 147 154 167 167 161 163 170 180 186 200 216 220 222 234 239 246
140 138 135 128 103 81 74 94 112 123 124 123 130 130 127 127 130 125 123 127 129 126 128 121 119 121 122 120 117 118 120 123 125 130 137 152 152 155 154 153 156 158 163 160 151 144 140 153 165 165 159 161 158 153 148 148 145 142 154 166 144 131
155 139 122 112 80 84 77 87 90 120 128 131 135 138 132 130 127 125 126 126 126 125 121 122 129 124 121 114 92 71 67 113 132 117 79 44 65 117 150 146 137 148 151 144 144 147 153 156 164 169 143 145 151 150 144 146 147 146 141 146 155 128
157 147 138 114 104 93 100 121 120 125 133 137 143 142 136 134 131 129 130 131 127 128 126 125 122 120 115 107 105 102 80 58 57 61 99 90 67 65 60 66 91 104 118 105 77 98 170 166 121 125 134 141 147 148 141 141 142 146 144 160 174 169
160 145 141 138 134 126 118 119 127 131 137 141 147 143 141 139 136 134 134 136 140 139 136 131 124 123 117 116 116 107 106 98 69 72 82 90 88 85 83 84 82 80 86 104 108 79 88 101 117 127 131 137 140 147 150 155 166 175 186 192 188 212
157 163 144 136 133 133 142 137 135 135 137 143 144 149 149 151 145 138 138 127 128 129 125 106 121 125 126 122 122 118 120 111 106 86 78 89 92 91 93 93 90 86 89 101 109 109 102 116 124 131 135 141 151 159 168 175 184 192 197 210 210 210
45 96 119 133 139 140 143 134 132 118 126 134 151 157 153 151 145 139 133 127 130 121 124 122 122 129 129 135 131 131 129 127 127 120 109 81 82 89 99 99 96 98 103 110 114 117 129 140 145 145 144 142 142 141 152 161 160 169 190 179 205 215
135 133 137 142 144 137 134 134 135 129 130 203 158 155 149 142 137 138 140 140 140 136 135 135 137 137 137 137 139 139 137 136 133 135 126 128 122 84 72 77 86 98 105 106 112 119 124 128 132 134 136 137 139 144 156 160 172 164 162 173 190 209
127 131 125 130 125 128 130 127 92 357 301 243 170 145 134 128 125 122 121 130 134 137 139 141 139 140 139 141 142 138 137 132 133 135 141 147 140 136 132 124 84 79 100 111 113 117 118 118 117 117 122 125 128 132 143 147 156 176 183 170 172 187
135 135 137 136 145 129 116 140 185 250 262 226 169 145 136 131 129 129 128 131 133 130 133 135 136 138 141 145 140 132 123 129 134 143 146 141 125 123 128 122 102 78 79 100 110 111 110 109 107 106 103 102 109 139 161 169 192 157 184 137 106 99